Location: Cucq
(50.4773°N, 1.6202°E)
Time: 17:21:46
(UTC+00:00)

ATLAS CENTAUR R/B - Pass Details

Date: 07 August 2020
Orbit: 476 x 670 km, 64.7° (Epoch: 19 September)

Event Time Altitude Azimuth Distance (km) Brightness Sun altitude
Rises 03:27:45 0° 167° (SSE) 2,776 4.6 -9.1°
Reaches altitude 10° 03:31:10 10° 138° (SE) 1,834 4.0 -8.7°
Maximum altitude 03:32:56 13° 113° (ESE) 1,653 4.2 -8.5°
Drops below altitude 10° 03:34:39 10° 87° (E) 1,790 4.9 -8.3°
Sets 03:37:54 0° 58° (ENE) 2,641 7.3 -7.9°
